[[{"header":{"parameterUnit":"m.s-1","parameterCategory":1,"la1":30.2991,"la2":30.254,"lo1":-89.0895,"lo2":-89.0444,"dy":0.0017,"dx":0.0017,"nx":28,"ny":28,"refTime":"2025-06-09T03:00:00:Z","depth":0,"parameterNumber":2,"parameterNumberName":"U-component_of_WINDS"},"data":[0,0,0,0,0,0,0,0,0,0,0,0,0,0,0,0,0,0,0,0,0,0,0,0,0,0,0,0,0,0,0,0,0,0,0,0,0,0,0,0,0,0,0,0,0,0,0,0,0,0,0,0,0,0,0,0,0,0,5.4936,5.4938,0,5.5058,5.506,5.5061,5.5015,5.5012,5.5009,5.5006,5.5131,5.5137,5.5143,0,0,0,0,0,0,0,0,0,0,0,0,0,5.4661,5.4666,5.4936,5.4938,5.4939,5.5058,5.506,5.5061,5.5015,5.5012,5.5008,5.5005,5.5129,5.5136,5.5143,0,0,0,0,0,0,0,0,0,0,0,0,0,5.4781,5.4668,5.4936,5.4931,5.4931,5.5058,5.506,5.5062,5.5016,5.5012,5.5007,5.5004,5.5127,5.5136,5.5144,5.5283,0,0,5.5171,5.5175,0,0,0,0,0,0,0,0,5.4775,5.4791,5.493,5.4931,5.4932,5.5017,5.5008,5.5136,5.5017,5.4984,5.5006,5.5002,5.5097,5.5108,5.514,5.5289,5.5294,5.5172,5.5178,5.5181,5.5184,0,0,0,0,0,0,0,5.4766,5.4786,5.4985,5.4932,5.4933,5.4921,5.4934,5.5032,5.5062,5.4986,5.4983,5.4998,5.5096,5.5131,5.5142,5.5296,5.5172,5.518,5.5185,5.5189,5.5561,5.5565,0,0,0,0,0,0,5.4758,5.4779,5.4981,5.4988,5.4841,5.493,5.4944,5.4994,5.5061,5.5067,5.5002,5.4996,5.5118,5.5132,5.5147,5.531,5.5181,5.519,5.5195,5.5556,5.5562,5.5567,0,0,0,0,0,0,5.4752,5.4776,5.4976,5.4883,5.4907,5.4939,5.4996,5.4999,5.5033,5.5073,5.5078,5.5032,5.5115,5.5134,5.5248,5.5313,5.5194,5.5202,5.5551,5.5558,5.5564,5.5639,0,0,0,0,0,0,5.4744,5.4774,5.4828,5.4885,5.4913,5.5077,5.5,5.5004,5.5049,5.5042,5.5102,5.5108,5.5114,5.5235,5.5257,5.5323,5.5209,5.5545,5.5554,5.5562,5.5631,5.5648,5.5662,0,0,0,0,0,5.4735,5.4846,5.4831,5.4856,5.4981,5.5081,5.5096,5.51,5.5055,5.5108,5.5133,5.5106,5.5304,5.5248,5.5272,5.5342,5.5541,5.5551,5.5561,5.5624,5.5645,5.5662,0,0,0,0,0,0,5.4797,5.4853,5.4838,5.497,5.5021,5.5073,5.514,5.5123,5.5187,5.5178,5.518,5.5194,5.5311,5.5338,5.5275,5.5477,5.5415,5.5431,5.5455,5.5474,5.549,5.5479,5.5216,0,0,0,0,0,5.4826,5.4903,5.4948,5.506,5.5087,5.5109,5.5153,5.5151,5.5204,5.5225,5.5258,5.5309,5.5382,5.543,5.55,5.5636,5.5646,5.5696,5.5711,5.5724,5.5736,5.5805,5.5826,5.56,5.56,5.56,0,0,5.4887,5.4927,5.4976,5.5074,5.5113,5.519,5.5128,5.5214,5.5271,5.5238,5.5346,5.5373,5.543,5.5555,5.5611,5.5581,5.5801,5.5737,5.5747,5.5752,5.5818,5.5839,5.5858,5.5607,5.5606,5.5605,0,0,5.5037,5.5077,5.5172,5.5212,5.5272,5.5286,5.5309,5.5363,5.5378,5.5488,5.5463,5.5531,5.5659,5.5699,5.5736,5.5899,5.5875,5.5922,5.6001,5.6069,5.6087,5.6102,5.6156,5.6176,5.5934,5.5935,5.5935,0,5.5104,5.5221,5.5224,5.5311,5.5353,5.5327,5.5422,5.5461,5.554,5.5569,5.5535,5.5691,5.5728,5.5859,5.5898,5.5931,5.5955,5.5913,5.6084,5.61,5.6114,5.6165,5.6186,5.594,5.5939,5.5938,5.5938,0,5.53,5.5381,5.5452,5.5527,5.5578,5.5669,5.5684,5.5735,5.5728,5.5745,5.5855,5.5899,5.5974,5.6006,5.6002,5.6136,5.6115,5.6083,5.6019,5.6141,5.6188,5.6208,5.5947,5.5945,5.5943,5.5942,0,0,5.5492,5.5566,5.5591,5.5623,5.5686,5.5748,5.5837,5.5911,5.5952,5.6008,5.608,5.6187,5.6156,5.6198,5.6198,5.6258,5.6378,5.6218,5.6219,5.6242,5.6524,5.6544,5.6567,5.6365,5.6368,5.6372,5.6517,0,5.5643,5.5798,5.5802,5.5943,5.6016,5.5991,5.6068,5.6114,5.6132,5.6195,5.6216,5.6289,5.6246,5.627,5.6329,5.6351,5.6434,5.6342,5.6429,5.6432,5.6411,5.6593,5.6616,5.6752,5.6536,5.654,5.6542,0,5.584,5.5899,5.6048,5.6096,5.6127,5.6196,5.6261,5.6324,5.6374,5.6383,5.6429,5.6419,5.6508,5.6444,5.6564,5.6501,5.6537,5.6554,5.6559,5.6564,5.6492,5.6599,5.6795,5.6814,5.6572,5.657,5.6568,0,5.5959,5.6077,5.6179,5.6208,5.6269,5.6317,5.6345,5.6391,5.6434,5.6492,5.6519,5.6587,5.6623,5.6675,5.6683,5.6637,5.6802,5.674,5.6809,5.6808,5.6842,5.6839,5.7042,5.6873,5.6872,5.6872,5.6871,0,5.6125,5.6215,5.6233,5.6296,5.6396,5.6399,5.6498,5.6521,5.6562,5.6628,5.6612,5.6673,5.6682,5.6745,5.6753,5.6848,5.6866,5.6874,5.6873,5.6873,5.6871,5.6894,5.6883,5.6877,5.6876,5.6875,5.6874,0,5.6273,5.6289,5.6399,5.6446,5.646,5.6531,5.6571,5.663,5.6647,5.6729,5.6749,5.6774,5.6848,5.6861,5.6949,5.6953,5.7066,5.7059,5.7048,5.7046,5.7112,5.7104,5.7334,5.7363,5.7178,5.718,5.7181,0,5.6376,5.6445,5.6499,5.6541,5.657,5.664,5.6683,5.6689,5.6734,5.6795,5.6846,5.6917,5.6974,5.7093,5.7118,5.7184,5.7175,5.7252,5.7185,5.7181,5.7171,5.7165,5.717,5.7263,5.7265,5.7267,5.7268,0,5.6555,5.6559,5.6621,5.6686,5.6737,5.6789,5.6838,5.6873,5.6885,5.6937,5.7011,5.7055,5.7143,5.7213,5.7278,5.7305,5.7287,5.7289,5.7308,5.7305,5.7294,5.7296,5.7078,5.7283,5.7282,5.728,5.728,5.7279,5.6681,5.6739,5.6785,5.6854,5.6891,5.6936,5.6993,5.7015,5.7077,5.7148,5.7149,5.7229,5.7275,5.736,5.7391,5.7453,5.7429,5.7457,5.7463,5.7469,5.7472,5.7288,5.7466,5.7465,5.7465,5.7465,5.7464,0,5.6855,5.6883,5.6947,5.7014,5.7068,5.7048,5.71,5.7145,5.7216,5.7261,5.7317,5.74,5.7467,5.7498,5.7563,5.7607,5.76,5.7623,5.7618,5.7624,5.7493,5.7468,5.7627,5.7627,5.7627,5.7627,5.7627,5.7627,5.6951,5.7047,5.7056,5.7169,5.7197,5.7274,5.7305,5.7346,5.7381,5.7474,5.753,5.7549,5.7587,5.7655,5.7715,5.7722,5.7745,5.7771,5.7774,5.765,5.7634,5.7618,5.7594,5.7777,5.7777,5.7898,5.79,5.79]},{"header":{"parameterUnit":"m.s-1","parameterCategory":1,"la1":30.2991,"la2":30.254,"lo1":-89.0895,"lo2":-89.0444,"dy":0.0017,"dx":0.0017,"nx":28,"ny":28,"refTime":"2025-06-09T03:00:00:Z","depth":0,"parameterNumber":3,"parameterNumberName":"V-component_of_WINDS"},"data":[0,0,0,0,0,0,0,0,0,0,0,0,0,0,0,0,0,0,0,0,0,0,0,0,0,0,0,0,0,0,0,0,0,0,0,0,0,0,0,0,0,0,0,0,0,0,0,0,0,0,0,0,0,0,0,0,0,0,3.1324,3.1326,0,3.1477,3.1479,3.148,3.1465,3.1463,3.146,3.1458,3.1615,3.1621,3.1627,0,0,0,0,0,0,0,0,0,0,0,0,0,3.1018,3.1024,3.1324,3.1326,3.1328,3.1476,3.1479,3.1481,3.1466,3.1463,3.146,3.1457,3.1613,3.162,3.1628,0,0,0,0,0,0,0,0,0,0,0,0,0,3.1159,3.1026,3.1324,3.1338,3.1341,3.1476,3.1479,3.1481,3.1466,3.1463,3.1459,3.1456,3.161,3.1619,3.1629,3.1759,0,0,3.1658,3.1662,0,0,0,0,0,0,0,0,3.1151,3.117,3.1334,3.1337,3.1341,3.1448,3.1428,3.1574,3.1467,3.1419,3.1458,3.1454,3.1562,3.1576,3.1612,3.1767,3.1773,3.1659,3.1665,3.1669,3.1672,0,0,0,0,0,0,0,3.1141,3.1164,3.1384,3.1337,3.1341,3.1337,3.1353,3.1456,3.1509,3.1423,3.1422,3.144,3.1563,3.1603,3.1616,3.1776,3.1659,3.1667,3.1673,3.1677,3.2044,3.2048,0,0,0,0,0,0,3.1128,3.1156,3.138,3.1389,3.1235,3.1345,3.1363,3.1417,3.1507,3.1518,3.1443,3.1439,3.1588,3.1604,3.1621,3.1779,3.1669,3.1678,3.1683,3.204,3.2045,3.2049,0,0,0,0,0,0,3.1122,3.1148,3.1373,3.1272,3.1301,3.1354,3.1415,3.1422,3.1462,3.1523,3.1532,3.1474,3.1586,3.1608,3.1725,3.1785,3.1682,3.1691,3.2035,3.2041,3.2047,3.2097,0,0,0,0,0,0,3.1113,3.1146,3.1197,3.1273,3.1306,3.1475,3.1419,3.1428,3.1478,3.1474,3.1554,3.1564,3.1585,3.1711,3.1734,3.1796,3.1698,3.203,3.2038,3.2045,3.209,3.2104,3.2116,0,0,0,0,0,3.1102,3.1205,3.1199,3.1226,3.137,3.1479,3.1497,3.1519,3.1483,3.1534,3.1573,3.1561,3.1774,3.1723,3.1749,3.1815,3.2026,3.2036,3.2044,3.2085,3.2101,3.2116,0,0,0,0,0,0,3.1134,3.1215,3.121,3.1341,3.1403,3.1476,3.1541,3.1536,3.161,3.1603,3.1627,3.1646,3.1764,3.1801,3.1742,3.1945,3.1895,3.191,3.1917,3.1933,3.1946,3.1935,3.1706,0,0,0,0,0,3.1156,3.1238,3.1304,3.1413,3.1444,3.1487,3.1535,3.1547,3.1612,3.1638,3.1686,3.175,3.1831,3.1884,3.1962,3.2095,3.2112,3.2153,3.2166,3.2176,3.2189,3.2261,3.228,3.2079,3.2079,3.2078,0,0,3.1203,3.1257,3.1307,3.1421,3.147,3.1554,3.151,3.16,3.1662,3.1652,3.1766,3.1803,3.1876,3.2001,3.2059,3.2036,3.2248,3.2187,3.2195,3.2202,3.2272,3.2291,3.2308,3.2085,3.2084,3.2083,0,0,3.1331,3.138,3.1476,3.1526,3.1602,3.1629,3.1652,3.1726,3.175,3.1865,3.1859,3.1932,3.2072,3.2124,3.2168,3.2314,3.2306,3.2339,3.2406,3.2476,3.2492,3.2506,3.2558,3.2577,3.2351,3.2351,3.2351,0,3.1379,3.1505,3.1526,3.1617,3.1667,3.1661,3.1758,3.1806,3.1903,3.1937,3.191,3.2084,3.2132,3.227,3.2305,3.2341,3.2368,3.233,3.2488,3.2503,3.2516,3.2566,3.2586,3.2355,3.2354,3.2354,3.2354,0,3.1561,3.1648,3.1717,3.181,3.1867,3.1961,3.1995,3.2051,3.2057,3.2087,3.2203,3.2261,3.235,3.2383,3.2391,3.2522,3.2505,3.2483,3.2433,3.2539,3.2586,3.2605,3.236,3.2359,3.2358,3.2357,0,0,3.1715,3.1818,3.1842,3.1884,3.1966,3.2034,3.2127,3.2214,3.2261,3.2328,3.2406,3.2523,3.2503,3.2553,3.2566,3.2627,3.2739,3.2597,3.2599,3.2622,3.2887,3.2904,3.2926,3.2734,3.2737,3.274,3.2881,0,3.1851,3.2016,3.2036,3.2182,3.2263,3.2258,3.2339,3.2397,3.2428,3.25,3.2534,3.2617,3.2583,3.2614,3.2674,3.2713,3.2793,3.2703,3.2807,3.281,3.2789,3.295,3.2969,3.3099,3.29,3.2903,3.2905,0,3.2032,3.2104,3.2258,3.2328,3.2362,3.2435,3.2516,3.2585,3.2651,3.2669,3.2725,3.2729,3.2825,3.2771,3.2902,3.284,3.2884,3.2909,3.2914,3.2926,3.2865,3.2966,3.3141,3.3161,3.2934,3.2932,3.293,0,3.2129,3.2263,3.2373,3.2409,3.2494,3.2544,3.2582,3.2645,3.2695,3.2766,3.2799,3.288,3.2924,3.2986,3.3012,3.297,3.3142,3.309,3.316,3.3159,3.3197,3.3194,3.3381,3.3224,3.3224,3.3223,3.3223,0,3.2279,3.2373,3.2417,3.2485,3.259,3.2612,3.2716,3.2751,3.2807,3.2881,3.2881,3.295,3.298,3.3054,3.3074,3.318,3.32,3.3217,3.3221,3.3217,3.3215,3.3247,3.3239,3.3228,3.3227,3.3226,3.3225,0,3.2405,3.2438,3.2557,3.2627,3.2647,3.2722,3.2781,3.2846,3.2875,3.2969,3.2992,3.3038,3.3125,3.3156,3.3262,3.3275,3.3398,3.3395,3.3376,3.3377,3.3444,3.3438,3.3659,3.3689,3.3511,3.3513,3.3514,0,3.2499,3.2571,3.2649,3.2699,3.2738,3.2818,3.2869,3.2894,3.2947,3.3027,3.3083,3.3169,3.3239,3.3378,3.342,3.3501,3.35,3.3572,3.3512,3.3505,3.3501,3.3497,3.3504,3.3583,3.3585,3.3586,3.3588,0,3.2662,3.2675,3.2749,3.283,3.2891,3.2955,3.3018,3.3058,3.3092,3.3152,3.324,3.3295,3.3402,3.3488,3.357,3.3608,3.3604,3.3606,3.3626,3.3623,3.3609,3.3618,3.3406,3.3601,3.36,3.3599,3.3598,3.3597,3.2775,3.2839,3.2904,3.2987,3.3036,3.3094,3.3158,3.3195,3.3269,3.3359,3.3368,3.3464,3.3527,3.3637,3.3679,3.3753,3.3734,3.3763,3.3771,3.3778,3.3783,3.3597,3.3768,3.3768,3.3768,3.3767,3.3767,0,3.2939,3.298,3.3055,3.3143,3.3207,3.3197,3.3265,3.332,3.3404,3.3463,3.3532,3.3634,3.3716,3.3765,3.3848,3.3898,3.3898,3.3919,3.3916,3.3925,3.3796,3.377,3.3918,3.3917,3.3917,3.3917,3.3917,3.3917,3.3031,3.3139,3.3159,3.3291,3.3331,3.3424,3.3464,3.3518,3.3565,3.3678,3.3747,3.3778,3.3833,3.3919,3.3995,3.4007,3.4037,3.406,3.407,3.3949,3.3934,3.3919,3.3895,3.4066,3.4067,3.4193,3.4194,3.4195]}]]